Location: Unspecified
(3.5134°S, 0.0000°E)
Time: 09:25:33
(UTC+00:00)

ERS 2 DEB - Visible Passes

Search period start: 04 April 2026 00:00
Search period end: 14 April 2026 00:00
Orbit: 704 x 709 km, 98.5° (Epoch: 28 March)

Date Brightness Start Highest point End Pass type
(mag) Time Alt. Az. Time Alt. Az. Time Alt. Az.
5 Apr ? 04:01:15 10° N 04:01:16 10° N 04:01:16 10° N visible
7 Apr ? 03:51:15 10° NNE 03:51:27 11° NNE 03:51:27 11° NNE visible
8 Apr ? 04:35:53 10° NNW 04:36:00 11° NNW 04:36:00 11° NNW visible
9 Apr ? 03:41:19 10° NNE 03:41:36 12° NNE 03:41:36 12° NNE visible
10 Apr ? 04:25:27 10° NNW 04:26:08 14° NNW 04:26:08 14° NNW visible
11 Apr ? 03:31:28 10° NNE 03:31:41 11° NNE 03:31:41 11° NNE visible
12 Apr ? 04:15:09 10° N 04:16:12 16° N 04:16:12 16° N visible
13 Apr ? 03:21:42 10° NE 03:21:44 10° NE 03:21:44 10° NE visible
